Location: Unspecified
(0.0000°N, 0.0000°E)
Time: 05:53:52
(UTC+00:00)

XW-2F - Pass Details

Date: 13 July 2020
Orbit: 501 x 522 km, 97.5° (Epoch: 13 August)

Event Time Altitude Azimuth Distance (km) Brightness Sun altitude
Rises 05:11:33 0° 30° (NNE) 2,614 ? -12.6°
Reaches altitude 10° 05:13:53 10° 43° (NE) 1,727 ? -12.0°
Maximum altitude 05:17:02 26° 101° (E) 1,023 ? -11.3°
Drops below altitude 10° 05:20:11 10° 159° (SSE) 1,724 ? -10.6°
Sets 05:22:29 0° 172° (S) 2,608 ? -10.1°
